Weather History for Pensacola, FL

Change the Weather History Date:

Saturday, August 17, 2013

  Actual Average Record
Temperature  
Mean Temperature 74 °F 82 °F  
Max Temperature 76 °F 89 °F 97 °F (1952)
Min Temperature 71 °F 74 °F 68 °F (1892)
Cooling Degree Days 9 17  
Month to date cooling degree days 307 289  
Year to date cooling degree days 1764 1735  
Since 1 June cooling degree days 1322 1287  
Growing Degree Days 23 (Base 50)    
Moisture  
Dew Point 72 °F    
Average Humidity 94    
Maximum Humidity 100    
Minimum Humidity 87    
Precipitation  
Precipitation 2.74 in 0.20 in 2.74 in (2013)
Month to date precipitation 6.10 3.95  
Year to date precipitation 52.54 41.96  
Sea Level Pressure  
Sea Level Pressure 29.99 in    
Wind  
Wind Speed 7 mph (ENE)    
Max Wind Speed 17 mph    
Max Gust Speed 21 mph    
Visibility 6 miles    
Events Rain    
T = Trace of Precipitation, MM = Missing Value Source: NWS Daily Summary

Daily Weather History Graph

Daily Weather History Graph

Search for Another Location

Airport:

Trip Planner

Search our weather history database for the weather conditions in past years. The results will help you decide how hot, cold, wet, or windy it might be!

Date:

Astronomy

Aug. 17, 2013 Rise Set
Actual Time 6:16 AM CDT 7:28 PM CDT
Civil Twilight 5:51 AM CDT 7:53 PM CDT
Nautical Twilight 5:21 AM CDT 8:23 PM CDT
Astronomical Twilight 4:50 AM CDT 8:53 PM CDT
Moon 4:36 PM CDT (8/17) 2:27 AM CDT (8/17)
Length of Visible Light 14h 01m
Length of Day
13h 11m
Waxing Gibbous, 84% of the Moon is Illuminated
Aug 17
Waxing Gibbous
Aug 20
Full
Aug 28
Last Quarter
Sep 5
New
Sep 12
First Quarter

Hourly Weather History & Observations

Time (CDT) Temp. Dew Point Humidity Pressure Visibility Wind Dir Wind Speed Gust Speed Precip Events Conditions
12:12 AM 75.2 °F 73.4 °F 94% 30.00 in 7.0 mi Calm Calm - 0.04 in Rain Light Rain
12:24 AM 75.2 °F 73.4 °F 94% 29.99 in 7.0 mi Calm Calm - 0.04 in Rain Light Rain
12:51 AM 75.2 °F 73.4 °F 94% 29.98 in 5.0 mi Calm Calm - 0.07 in Rain Rain
12:53 AM 75.9 °F 73.9 °F 94% 29.99 in 5.0 mi Calm Calm - 0.08 in Rain Rain
1:09 AM 75.2 °F 73.4 °F 94% 29.98 in 8.0 mi NE 4.6 mph - 0.02 in Rain Light Rain
1:19 AM 75.2 °F 73.4 °F 94% 29.99 in 10.0 mi NNE 3.5 mph - 0.02 in Rain Light Rain
1:32 AM 75.2 °F 73.4 °F 94% 29.99 in 8.0 mi North 3.5 mph - 0.02 in Rain Light Rain
1:53 AM 75.0 °F 73.9 °F 96% 29.98 in 4.0 mi NE 4.6 mph - 0.06 in Rain Rain
2:12 AM 75.2 °F 73.4 °F 94% 29.96 in 6.0 mi NE 5.8 mph - 0.04 in Rain Light Rain
2:41 AM 75.2 °F 73.4 °F 94% 29.96 in 5.0 mi NE 5.8 mph - 0.12 in Rain Light Rain
2:53 AM 75.0 °F 73.0 °F 94% 29.97 in 7.0 mi NE 4.6 mph - 0.12 in Rain Rain
3:36 AM 73.4 °F 73.4 °F 100% 29.95 in 2.0 mi NE 9.2 mph - 0.24 in Rain Heavy Rain
3:43 AM 73.4 °F 73.4 °F 100% 29.96 in 1.5 mi NNE 6.9 mph - 0.38 in Rain Heavy Rain
3:53 AM 73.9 °F 73.0 °F 97% 29.96 in 1.8 mi NNE 8.1 mph - 0.55 in Rain Heavy Rain
4:08 AM 73.4 °F 71.6 °F 94% 29.95 in 2.0 mi NE 6.9 mph 16.1 mph 0.26 in Rain Heavy Rain
4:19 AM 73.4 °F 71.6 °F 94% 29.95 in 3.0 mi NE 9.2 mph - 0.32 in Rain Heavy Rain
4:22 AM 73.4 °F 71.6 °F 94% 29.95 in 2.5 mi NE 9.2 mph - 0.35 in Rain Heavy Rain
4:39 AM 71.6 °F 71.6 °F 100% 29.95 in 3.0 mi NNE 8.1 mph - 0.49 in Rain Heavy Rain
4:53 AM 73.0 °F 71.1 °F 93% 29.96 in 4.0 mi NNE 5.8 mph - 0.54 in Rain Rain
5:53 AM 73.0 °F 71.1 °F 93% 29.95 in 7.0 mi NE 5.8 mph - 0.11 in Rain Light Rain
6:01 AM 73.4 °F 71.6 °F 94% 29.96 in 10.0 mi NNE 4.6 mph - 0.00 in Rain Light Rain
6:40 AM 73.4 °F 71.6 °F 94% 29.98 in 4.0 mi Calm Calm - 0.08 in Rain Heavy Rain
6:53 AM 73.0 °F 71.1 °F 93% 29.98 in 4.0 mi NNE 4.6 mph - 0.14 in Rain Heavy Rain
7:10 AM 71.6 °F 71.6 °F 100% 29.97 in 4.0 mi Variable 5.8 mph - 0.08 in Rain Heavy Rain
7:20 AM 73.4 °F 71.6 °F 94% 29.98 in 2.5 mi NNE 6.9 mph - 0.14 in Rain Heavy Rain
7:32 AM 73.4 °F 71.6 °F 94% 29.99 in 2.0 mi Variable 4.6 mph - 0.22 in Rain Heavy Rain
7:51 AM 73.4 °F 71.6 °F 94% 29.99 in 5.0 mi NNE 4.6 mph - 0.31 in Rain Light Rain
7:53 AM 73.0 °F 72.0 °F 96% 29.99 in 6.0 mi NNE 4.6 mph - 0.31 in Rain Light Rain
8:53 AM 73.0 °F 71.1 °F 93% 29.99 in 10.0 mi NE 4.6 mph - 0.05 in Rain Light Rain
9:53 AM 73.0 °F 72.0 °F 96% 30.01 in 7.0 mi Variable 4.6 mph - 0.12 in Rain Rain
10:53 AM 73.0 °F 71.1 °F 93% 30.00 in 4.0 mi ENE 6.9 mph - 0.15 in Rain Rain
11:06 AM 73.4 °F 71.6 °F 94% 30.00 in 5.0 mi ENE 9.2 mph - 0.04 in Rain Rain
11:18 AM 73.4 °F 71.6 °F 94% 30.00 in 5.0 mi East 8.1 mph 16.1 mph 0.07 in Rain Rain
11:53 AM 73.0 °F 71.1 °F 93% 30.01 in 8.0 mi East 8.1 mph - 0.15 in Rain Rain
12:53 PM 73.9 °F 72.0 °F 93% 30.00 in 7.0 mi ESE 12.7 mph - 0.09 in Rain Light Rain
1:53 PM 73.9 °F 71.1 °F 91% 30.01 in 10.0 mi SE 13.8 mph - 0.06 in Rain Light Rain
2:53 PM 73.9 °F 70.0 °F 87% 30.01 in 10.0 mi ESE 10.4 mph - 0.04 in Rain Light Rain
3:00 PM 73.4 °F 71.6 °F 94% 30.00 in 8.0 mi SE 5.8 mph - 0.01 in Rain Light Rain
3:07 PM 73.4 °F 71.6 °F 94% 30.01 in 9.0 mi SE 6.9 mph - 0.01 in Rain Light Rain
3:53 PM 75.0 °F 72.0 °F 90% 30.00 in 10.0 mi SSE 8.1 mph - 0.03 in Rain Light Rain
4:53 PM 73.9 °F 71.1 °F 91% 29.99 in 10.0 mi South 6.9 mph - 0.00 in Rain Light Rain
5:53 PM 75.0 °F 72.0 °F 90% 30.01 in 9.0 mi South 10.4 mph - 0.03 in Rain Light Rain
6:53 PM 73.9 °F 69.1 °F 85% 30.01 in 9.0 mi West 11.5 mph - 0.06 in Rain Light Rain
7:53 PM 73.0 °F 69.1 °F 87% 30.01 in 10.0 mi SW 6.9 mph - 0.00 in   Partly Cloudy
8:53 PM 73.0 °F 66.9 °F 81% 30.01 in 9.0 mi South 3.5 mph - 0.01 in Rain Light Rain
9:53 PM 72.0 °F 69.1 °F 91% 30.04 in 9.0 mi Calm Calm - 0.03 in Rain Light Rain
10:53 PM 73.0 °F 70.0 °F 90% 30.01 in 10.0 mi East 6.9 mph - 0.04 in Rain Light Rain
11:53 PM 73.0 °F 70.0 °F 90% 30.00 in 10.0 mi NE 4.6 mph - 0.01 in   Mostly Cloudy